CAPE
477 414 351 71 12 2 64 16 15 25 6 0 0 0 0 0 0 0 0 0 0 0 0 0 0 0 0 0 0 0 0 0 0 0 0 0 0 0 0 0 0 0
611 491 254 172 66 12 68 92 52 32 11 0 0 0 0 1 10 0 7 2 0 0 0 0 0 0 0 0 0 0 0 0 0 0 0 0 0 0 0 0 0 0
722 669 513 331 215 280 342 345 178 107 25 23 0 0 1 18 11 2 24 6 0 0 0 0 0 0 0 0 0 0 0 0 0 0 0 0 0 0 0 0 0 0
832 804 672 535 411 490 663 486 344 230 107 170 20 7 88 85 3 12 33 4 1 0 0 0 0 0 0 0 0 0 0 0 0 0 0 0 0 0 0 0 0 0
879 870 775 677 576 530 681 615 509 304 263 328 279 129 34 12 8 19 36 10 14 2 0 0 0 0 0 0 0 0 0 0 0 0 0 0 0 0 0 0 0 0
830 737 710 653 685 737 683 706 586 468 399 420 460 269 32 16 8 19 37 34 26 10 1 0 0 0 0 0 0 0 0 0 0 0 0 0 0 0 0 0 0 0
692 742 746 676 688 710 801 703 619 468 444 462 520 442 150 84 3 17 36 37 19 10 0 0 0 0 0 0 0 0 0 0 0 0 0 0 0 0 0 0 0 0
568 588 646 642 666 725 774 696 652 592 548 537 544 534 323 199 30 34 52 66 14 7 0 0 0 0 0 0 0 0 0 0 0 0 0 0 0 0 0 0 0 0
545 535 561 648 637 636 673 685 657 706 674 693 602 598 450 347 143 99 84 76 52 31 1 0 0 0 0 0 0 0 0 0 0 0 0 0 0 0 0 0 0 0
804 734 705 708 666 640 573 666 660 679 757 741 553 536 535 437 283 204 162 101 78 39 7 0 0 0 0 0 0 0 0 0 0 0 0 0 0 0 0 0 0 0
943 946 999 884 841 830 794 830 830 740 719 645 570 464 511 476 303 179 267 163 132 45 5 0 0 0 0 0 0 0 0 0 0 0 0 0 0 0 0 0 0 0
1142 1102 1020 1017 959 883 922 927 944 893 830 766 592 506 458 229 257 226 135 146 87 70 21 2 0 0 0 0 0 0 0 0 0 0 0 0 0 0 0 0 0 0
1120 1158 1163 1175 1148 1049 1006 986 925 888 912 880 758 617 495 344 341 226 228 200 52 46 15 7 7 0 0 0 0 0 0 0 0 0 0 0 0 0 0 0 0 0
234 788 925 946 997 1121 1121 1034 1004 940 872 859 750 654 552 500 562 500 434 269 174 57 4 3 10 26 10 0 0 0 0 0 0 0 0 0 0 0 0 0 0 0
0 69 245 358 641 794 918 973 976 916 880 654 512 499 544 604 571 546 540 512 369 18 0 3 0 0 1 0 0 0 0 0 0 0 0 0 0 0 0 0 0 0
0 0 0 8 92 286 450 775 766 741 778 704 546 472 455 479 475 469 434 406 325 192 114 72 0 0 0 0 0 0 0 0 0 0 0 0 0 0 0 0 0 0
0 0 0 0 5 122 199 290 587 789 626 581 450 338 321 340 115 190 201 208 174 30 44 12 17 0 0 0 0 0 0 0 0 0 0 0 0 0 0 0 0 0
0 0 0 0 0 0 42 207 320 485 779 747 640 500 153 184 190 194 226 210 214 143 72 17 0 0 0 0 0 0 0 0 0 0 0 0 0 0 0 0 0 0
0 0 0 0 0 0 14 188 260 342 428 572 637 682 484 365 397 361 382 136 76 251 157 12 0 0 0 0 0 0 0 0 0 0 0 0 0 0 0 0 0 0
0 0 0 0 0 1 42 71 156 255 351 429 555 624 498 356 376 268 272 253 250 233 137 0 0 0 0 0 0 0 0 0 0 0 0 0 0 0 0 0 0 0
0 0 0 0 0 0 33 53 68 146 289 355 378 416 381 301 262 317 264 159 209 212 145 0 0 12 0 0 0 0 0 0 0 0 0 0 0 0 0 0 0 0
0 0 0 0 0 1 22 53 96 122 214 283 297 309 234 219 220 252 195 291 224 0 0 0 0 39 12 3 0 0 0 0 0 0 0 0 0 0 0 0 0 0
0 0 0 0 0 0 0 43 109 144 175 186 232 174 153 117 213 245 95 134 130 0 0 0 5 54 34 18 7 2 0 0 0 0 0 0 0 0 0 0 0 0
0 0 0 0 0 0 0 9 86 156 179 178 165 110 72 95 230 138 5 117 0 97 0 109 88 48 22 5 0 1 0 0 0 0 0 0 0 0 0 0 0 0
0 0 0 0 0 0 0 7 51 96 93 112 64 105 86 158 99 12 0 72 46 136 130 107 85 27 7 4 2 3 2 2 1 1 0 0 0 0 0 0 0 0
0 0 0 0 0 0 4 4 20 35 56 73 70 78 106 47 3 0 122 94 38 141 94 21 5 4 4 0 0 0 2 6 10 4 2 1 0 0 0 0 0 0
Wind_Speed
17 17 18 nan nan nan nan nan nan nan nan nan nan nan nan nan nan nan nan nan nan nan nan nan nan nan nan nan nan nan nan nan nan nan nan nan nan nan nan nan nan nan
19 18 18 18 nan nan nan nan nan nan nan nan nan nan nan nan nan nan nan nan nan nan nan nan nan nan nan nan nan nan nan nan nan nan nan nan nan nan nan nan nan nan
21 20 19 18 17 17 17 17 16 15 nan nan nan nan nan nan nan nan nan nan nan nan nan nan nan nan nan nan nan nan nan nan nan nan nan nan nan nan nan nan nan nan
20 19 18 17 16 15 15 15 15 15 15 16 nan nan nan nan nan nan nan nan nan nan nan nan nan nan nan nan nan nan nan nan nan nan nan nan nan nan nan nan nan nan
20 19 17 15 14 13 14 14 14 14 15 16 17 19 nan nan nan nan nan nan nan nan nan nan nan nan nan nan nan nan nan nan nan nan nan nan nan nan nan nan nan nan
20 18 16 14 13 13 13 14 15 15 15 17 18 19 nan nan nan nan nan nan nan nan nan nan nan nan nan nan nan nan nan nan nan nan nan nan nan nan nan nan nan nan
19 19 17 17 16 15 14 14 16 17 17 17 19 19 20 nan nan nan nan nan nan nan nan nan nan nan nan nan nan nan nan nan nan nan nan nan nan nan nan nan nan nan
19 19 19 19 19 18 17 17 18 19 19 20 20 20 21 20 nan nan nan nan nan nan nan nan nan nan nan nan nan nan nan nan nan nan nan nan nan nan nan nan nan nan
21 21 21 21 20 21 20 20 21 20 22 22 22 21 21 20 20 nan nan nan nan nan nan nan nan nan nan nan nan nan nan nan nan nan nan nan nan nan nan nan nan nan
24 23 23 24 23 23 23 23 23 23 23 22 22 22 22 22 22 22 22 20 nan nan nan nan nan nan nan nan nan nan nan nan nan nan nan nan nan nan nan nan nan nan
27 26 25 26 26 26 25 25 26 26 25 24 25 25 25 26 25 24 23 22 21 nan nan nan nan nan nan nan nan nan nan nan nan nan nan nan nan nan nan nan nan nan
32 29 27 28 28 26 25 26 27 27 27 28 27 27 28 30 30 32 28 25 nan nan nan nan nan nan nan nan nan nan nan nan nan nan nan nan nan nan nan nan nan nan
34 32 32 31 30 29 28 28 27 27 27 28 28 27 28 31 35 34 34 31 nan nan nan nan nan nan nan nan nan nan nan nan nan nan nan nan nan nan nan nan nan nan
38 36 35 33 32 32 33 32 31 29 29 30 31 30 29 30 31 33 34 34 33 nan nan nan nan nan nan nan nan nan nan nan nan nan nan nan nan nan nan nan nan nan
nan nan 40 39 38 36 36 35 34 33 34 35 35 33 32 31 31 32 34 34 35 nan nan nan nan nan nan nan nan nan nan nan nan nan nan nan nan nan nan nan nan nan
nan nan nan nan nan 42 41 40 39 39 38 37 35 35 35 34 31 32 34 36 40 39 39 nan nan nan nan nan nan nan nan nan nan nan nan nan nan nan nan nan nan nan
nan nan nan nan nan 45 44 44 44 45 43 41 40 40 40 40 38 36 35 39 41 nan nan nan nan nan nan nan nan nan nan nan nan nan nan nan nan nan nan nan nan nan
nan nan nan nan nan nan nan 45 45 46 45 45 44 43 43 44 43 40 39 40 42 42 nan nan nan nan nan nan nan nan nan nan nan nan nan nan nan nan nan nan nan nan
nan nan nan nan nan nan nan 46 46 45 44 45 45 45 46 44 44 45 44 44 nan 48 52 nan nan nan nan nan nan nan nan nan nan nan nan nan nan nan nan nan nan nan
nan nan nan nan nan nan nan nan 47 46 46 47 48 48 48 47 47 48 47 48 50 54 57 nan nan nan nan nan nan nan nan nan nan nan nan nan nan nan nan nan nan nan
nan nan nan nan nan nan nan nan nan 49 48 49 49 49 50 50 50 50 51 52 55 59 62 nan nan nan nan nan nan nan nan nan nan nan nan nan nan nan nan nan nan nan
nan nan nan nan nan nan nan nan nan 49 49 50 50 50 50 50 50 52 53 56 61 nan nan nan nan nan nan nan nan nan nan nan nan nan nan nan nan nan nan nan nan nan
nan nan nan nan nan nan nan nan 48 48 48 49 49 49 49 49 49 51 nan 56 62 nan nan nan nan nan nan nan nan nan nan nan nan nan nan nan nan nan nan nan nan nan
nan nan nan nan nan nan nan nan nan 48 48 49 48 49 nan nan 50 53 nan 60 nan nan nan 67 nan nan nan nan nan nan nan nan nan nan nan nan nan nan nan nan nan nan
nan nan nan nan nan nan nan nan nan nan nan 49 nan 48 nan 50 nan nan nan nan nan 67 71 70 nan nan nan nan nan nan nan nan nan nan nan nan nan nan nan nan nan nan
nan nan nan nan nan nan nan nan nan nan nan nan nan nan 52 nan nan nan 65 nan nan 68 nan nan nan nan nan nan nan nan nan nan nan nan nan nan nan nan nan nan nan nan
Wind_Direction
290 286 285 nan nan nan nan nan nan nan nan nan nan nan nan nan nan nan nan nan nan nan nan nan nan nan nan nan nan nan nan nan nan nan nan nan nan nan nan nan nan nan
292 289 284 281 nan nan nan nan nan nan nan nan nan nan nan nan nan nan nan nan nan nan nan nan nan nan nan nan nan nan nan nan nan nan nan nan nan nan nan nan nan nan
292 290 291 289 284 285 286 286 286 286 nan nan nan nan nan nan nan nan nan nan nan nan nan nan nan nan nan nan nan nan nan nan nan nan nan nan nan nan nan nan nan nan
295 292 290 290 287 283 283 283 286 286 287 287 nan nan nan nan nan nan nan nan nan nan nan nan nan nan nan nan nan nan nan nan nan nan nan nan nan nan nan nan nan nan
293 292 290 285 283 286 285 286 288 287 291 293 293 295 nan nan nan nan nan nan nan nan nan nan nan nan nan nan nan nan nan nan nan nan nan nan nan nan nan nan nan nan
285 289 289 283 280 282 284 286 286 287 291 295 297 298 nan nan nan nan nan nan nan nan nan nan nan nan nan nan nan nan nan nan nan nan nan nan nan nan nan nan nan nan
283 282 280 275 277 279 278 278 279 283 287 290 293 296 298 nan nan nan nan nan nan nan nan nan nan nan nan nan nan nan nan nan nan nan nan nan nan nan nan nan nan nan
284 280 277 275 278 279 278 275 275 280 284 288 292 292 293 298 nan nan nan nan nan nan nan nan nan nan nan nan nan nan nan nan nan nan nan nan nan nan nan nan nan nan
273 276 276 278 278 276 277 275 272 274 279 285 287 286 289 290 293 nan nan nan nan nan nan nan nan nan nan nan nan nan nan nan nan nan nan nan nan nan nan nan nan nan
266 261 266 270 272 272 275 277 274 272 274 278 281 283 286 286 286 289 289 291 nan nan nan nan nan nan nan nan nan nan nan nan nan nan nan nan nan nan nan nan nan nan
265 262 264 265 264 264 270 274 276 275 274 276 277 282 284 281 279 276 276 281 283 nan nan nan nan nan nan nan nan nan nan nan nan nan nan nan nan nan nan nan nan nan
259 261 264 264 265 267 269 270 272 275 276 276 276 278 278 279 280 277 274 273 nan nan nan nan nan nan nan nan nan nan nan nan nan nan nan nan nan nan nan nan nan nan
258 257 259 262 266 267 266 265 266 268 271 274 275 275 275 275 276 278 277 279 nan nan nan nan nan nan nan nan nan nan nan nan nan nan nan nan nan nan nan nan nan nan
249 251 252 256 258 260 262 263 263 264 265 265 269 274 276 277 275 276 276 278 280 nan nan nan nan nan nan nan nan nan nan nan nan nan nan nan nan nan nan nan nan nan
nan nan 254 255 258 260 262 264 264 262 263 265 267 269 270 273 272 273 278 281 282 nan nan nan nan nan nan nan nan nan nan nan nan nan nan nan nan nan nan nan nan nan
nan nan nan nan nan 260 262 263 263 265 267 268 268 268 267 266 267 270 274 276 277 281 282 nan nan nan nan nan nan nan nan nan nan nan nan nan nan nan nan nan nan nan
nan nan nan nan nan 259 261 263 266 268 269 269 268 267 267 267 268 271 272 274 278 nan nan nan nan nan nan nan nan nan nan nan nan nan nan nan nan nan nan nan nan nan
nan nan nan nan nan nan nan 263 264 267 269 269 268 268 268 268 270 271 273 275 275 279 nan nan nan nan nan nan nan nan nan nan nan nan nan nan nan nan nan nan nan nan
nan nan nan nan nan nan nan 261 262 263 264 266 267 268 268 268 269 270 272 275 nan 280 280 nan nan nan nan nan nan nan nan nan nan nan nan nan nan nan nan nan nan nan
nan nan nan nan nan nan nan nan 263 264 264 264 264 266 267 267 268 270 271 274 277 279 279 nan nan nan nan nan nan nan nan nan nan nan nan nan nan nan nan nan nan nan
nan nan nan nan nan nan nan nan nan 264 266 267 267 267 267 267 268 270 271 273 275 275 275 nan nan nan nan nan nan nan nan nan nan nan nan nan nan nan nan nan nan nan
nan nan nan nan nan nan nan nan nan 265 266 267 267 267 267 267 268 269 272 274 274 nan nan nan nan nan nan nan nan nan nan nan nan nan nan nan nan nan nan nan nan nan
nan nan nan nan nan nan nan nan 264 265 266 267 268 268 268 269 269 270 nan 274 274 nan nan nan nan nan nan nan nan nan nan nan nan nan nan nan nan nan nan nan nan nan
nan nan nan nan nan nan nan nan nan 263 264 266 266 267 nan nan 269 271 nan 272 nan nan nan 273 nan nan nan nan nan nan nan nan nan nan nan nan nan nan nan nan nan nan
nan nan nan nan nan nan nan nan nan nan nan 263 nan 265 nan 268 nan nan nan nan nan 270 273 274 nan nan nan nan nan nan nan nan nan nan nan nan nan nan nan nan nan nan
nan nan nan nan nan nan nan nan nan nan nan nan nan nan 266 nan nan nan 268 nan nan 270 nan nan nan nan nan nan nan nan nan nan nan nan nan nan nan nan nan nan nan nan